Location: Dana
(41.8364°N, 106.7042°W)
Time: 02:50:14
(UTC+00:00)

Altair - Pass Details

Date: 17 May 2026
Orbit: 1501 x 1682 km, 47.2° (Epoch: 6 June)

Event Time Altitude Azimuth Distance (km) Brightness Sun altitude
Rises 11:52:58 0° 239° (WSW) 4,804 9.4 0.5°
Reaches altitude 10° 11:56:01 10° 239° (WSW) 3,843 8.9 1.0°
Maximum altitude 12:05:55 86° 152° (SSE) 1,667 7.8 2.7°
Drops below altitude 10° 12:16:08 10° 65° (ENE) 3,947 12.6 4.5°
Sets 12:19:19 0° 66° (ENE) 4,939 13.2 5.0°
